Accueil
METAR-TAF:

METAR-TAF

Aéroports :

Pearson Field

Vancouver, Washington, États-Unis

latitude: 45-37-24N, longitude: 122-39-23W, altitude: 7 m

Observation

Le bulletin a été fait il y a 11 minutes, à 09:30 UTC
Vent calme
Température -1°C
Humidité 93%
Pression 1016 hPa
Visibilité: 16.1 km
Quelques nuages à une hauteur de 700 ft
Nuages fragmentés à une hauteur de 1200 ft

METAR: KVUO 210930Z AUTO 00000KT 10SM FEW007 BKN012 M01/M02 A3001 RMK AO2 T10111017

Heure: 01:41 (09:41 UTC)


TAF: absent

Observations et prévisions météorologiques de plus de 4000 aéroports (messages METAR et TAF).

Les stations disponibles sont représentées par des disques jaunes et rouges sur la carte.

Passer la souris dessus pour voir le nom de la station.

Cliquer dessus pour voir les observations et prévisions météorologiques.

Pour changer de carte: cliquez sur les boutons verts avec une croix noire pour zoomer, sur le bouton vert avec un tiret pour effectuer un zoom arrière, ou sur les flèches vertes pour les cartes adjacentes.


METAR-TAF: